FW2345 Weather Reports


time (UTC)temp
C
wind
direction
speed
KPH
gust
KPH
rain 1hr
cm
rain 24hr
cm
rain mn
cm
humidity
%
barometer
mb
20260506124544 14 0.0 0.0 0.00 0.00 0.00 87 1004.6
20260506123040 14 0.0 0.0 0.00 0.00 0.00 86 1004.6
20260506121547 14 0.0 0.0 0.00 0.00 0.00 86 1004.6
20260506120040 15 0.0 0.0 0.00 0.00 0.00 84 1004.6
20260506114535 15 0.0 0.0 0.00 0.00 0.00 82 1004.8
20260506113035 15 0.0 0.0 0.00 0.00 0.00 80 1004.5
20260506111535 15 0.0 0.0 0.00 0.00 0.00 79 1004.7
20260506110036 15 0.0 0.0 0.00 0.00 0.00 79 1004.6
20260506104534 15 0.0 0.0 0.00 0.00 0.00 78 1004.2
20260506103032 15 0.0 0.0 0.00 0.00 0.00 77 1004.2
20260506101531 15 0.0 0.0 0.00 0.00 0.00 76 1004.2
20260506100031 15 0.0 0.0 0.00 0.00 0.00 75 1004.2
20260506094527 15 0.0 0.0 0.00 0.00 0.00 74 1004.4
20260506093027 15 0.0 0.0 0.00 0.00 0.00 74 1004.3
20260506091526 15 0.0 0.0 0.00 0.00 0.00 73 1004.3
20260506090025 15 0.0 0.0 0.00 0.00 0.00 72 1004.3
20260506084533 15 0.0 0.0 0.00 0.00 0.00 71 1004.5
20260506083025 15 0.0 0.0 0.00 0.00 0.00 70 1004.7
20260506081520 16 0.0 0.0 0.00 0.00 0.00 69 1004.6
20260506080122 16 0.0 0.0 0.00 0.00 0.00 69 1004.6
20260506073017 16 0.0 0.0 0.00 0.00 0.00 68 1004.8
20260506071516 16 0.0 0.0 0.00 0.00 0.00 67 1004.8
20260506061509 16 0.0 0.0 0.00 0.00 0.00 66 1005.5
20260506044601 16 0.0 0.0 0.00 0.00 0.00 63 1005.9
20260506043101 16 0.0 0.0 0.00 0.00 0.00 63 1005.9
20260506041605 17 0.0 0.0 0.00 0.00 0.00 62 1006.0
20260506040055 17 0.0 0.0 0.00 0.00 0.00 61 1006.0
20260506034556 17 0.0 0.0 0.00 0.00 0.00 60 1006.0
20260506033054 17 0.0 0.0 0.00 0.00 0.00 59 1006.0
20260506031554 17 0.0 0.0 0.00 0.00 0.00 58 1005.9
20260506030053 18 0.0 0.0 0.00 0.00 0.00 57 1006.0
20260506024556 18 0.0 0.0 0.00 0.00 0.00 56 1006.0
20260506023107 18 0.0 0.0 0.00 0.00 0.00 56 1006.1
20260506021552 19 0.0 0.0 0.00 0.00 0.00 54 1006.2
20260506020055 19 0.0 0.0 0.00 0.00 0.00 52 1006.1
20260506014551 19 0.0 0.0 0.00 0.00 0.00 53 1005.9
20260506013055 20 0.0 0.0 0.00 0.00 0.00 53 1005.7
20260506011550 20 0.0 0.0 0.00 0.00 0.00 52 1005.7
20260506010049 20 0.0 0.0 0.00 0.00 0.00 52 1005.5
20260506004547 20 0.0 0.0 0.00 0.00 0.00 50 1005.4
20260506003050 20 0.0 0.0 0.00 0.00 0.00 49 1005.2
20260506001554 20 0.0 0.0 0.00 0.00 0.00 49 1005.1
20260506000052 21 0.0 0.0 0.00 0.00 0.00 50 1005.1
20260505234546 21 0.0 0.0 0.00 0.00 0.00 50 1005.1
20260505233051 21 0.0 0.0 0.00 0.00 0.00 50 1005.0
20260505231547 21 0.0 0.0 0.00 0.00 0.00 49 1005.0
20260505230110 21 0.0 0.0 0.00 0.00 0.00 47 1004.9
20260505224544 21 0.0 0.0 0.00 0.00 0.00 47 1004.7
20260505223044 22 0.0 0.0 0.00 0.00 0.00 46 1004.8
20260505221546 22 0.0 0.0 0.00 0.00 0.00 47 1004.6
20260505220051 22 0.0 0.0 0.00 0.00 0.00 46 1004.5
20260505214540 23 0.0 0.0 0.00 0.00 0.00 44 1004.4
20260505213039 23 0.0 0.0 0.00 0.00 0.00 42 1004.3
20260505211542 23 0.0 0.0 0.00 0.00 0.00 42 1004.2
20260505210038 24 0.0 0.0 0.00 0.00 0.00 40 1004.1
20260505204537 25 0.0 0.0 0.00 0.00 0.00 36 1003.9
20260505203036 25 0.0 0.0 0.00 0.00 0.00 36 1004.1
20260505201535 25 0.0 0.0 0.00 0.00 0.00 35 1004.1
20260505200040 25 0.0 0.0 0.00 0.00 0.00 37 1004.0
20260505194531 25 0.0 0.0 0.00 0.00 0.00 36 1004.4
20260505193034 25 0.0 0.0 0.00 0.00 0.00 36 1004.6
20260505191535 25 0.0 0.0 0.00 0.00 0.00 36 1004.7
20260505190027 25 0.0 0.0 0.00 0.00 0.00 39 1004.8
20260505184527 25 0.0 0.0 0.00 0.00 0.00 37 1005.1
20260505183033 25 0.0 0.0 0.00 0.00 0.00 40 1005.2
20260505181525 25 0.0 0.0 0.00 0.00 0.00 40 1005.1
20260505180022 24 0.0 0.0 0.00 0.00 0.00 44 1005.7
20260505174521 24 0.0 0.0 0.00 0.00 0.00 45 1005.7
20260505173019 25 0.0 0.0 0.00 0.00 0.00 42 1005.8
20260505171519 25 0.0 0.0 0.00 0.00 0.00 42 1005.9
20260505170022 25 0.0 0.0 0.00 0.00 0.00 45 1005.6
20260505164514 25 0.0 0.0 0.00 0.00 0.00 45 1005.9
20260505163011 24 0.0 0.0 0.00 0.00 0.00 46 1006.2
20260505161523 24 0.0 0.0 0.00 0.00 0.00 50 1006.4
20260505153059 22 0.0 0.0 0.00 0.00 0.00 54 1007.0
20260505151555 22 0.0 0.0 0.00 0.00 0.00 55 1006.9
20260505150104 21 0.0 0.0 0.00 0.00 0.00 56 1007.0